Tracking 29528 objects as of 12-Sep-2024
HD Live streaming from Space Station
objects crossing your sky now

GEESAT 1-07

Track GEESAT 1-07 now!
10-day predictions


NORAD ID: 52791
Int'l Code: 2022-058G
Perigee: 597.9 km
Apogee: 606.2 km
Inclination: 50.0 °
Period: 96.6 minutes
Semi major axis: 6973 km
RCS: Unknown
Launch date: June 2, 2022
Source: People's Republic of China (PRC)
Launch site: Xichang Space Center, China (XSC)
Your satellite tracking list
Your tracking list is empty




NASA's NSSDC Master Catalog

Two Line Element Set (TLE):
1 52791U 22058G   24256.11972146  .00012581  00000-0  12809-2 0  9990
2 52791  49.9915 342.1449 0005942 222.6457 137.4023 14.90972329123909
Source of the keplerian elements: AFSPC